[Date Prev][Date Next][Thread Prev][Thread Next] - [Date Index][Thread Index][Author Index]
2 Line ISS Keps 5-8
- Subject: [sarex] 2 Line ISS Keps 5-8
- From: "Dave Larsen PhD" <doc@xxxxxxxxxxx>
- Date: Sun, 7 May 2006 18:38:59 -0700
ISS
1 25544U 98067A 06127.98436343 .00020173 00000-0 13581-3 0 8887
2 25544 051.6379 034.4278 0009847 172.1055 004.0596 15.75087576426827
----
Via the sarex mailing list at AMSAT.ORG courtesy of AMSAT-NA.
To unsubscribe, send "unsubscribe sarex" to Majordomo@amsat.org
AMSAT Home